VXP1094 KILM-KTPA

Flight info

Callsign VXP1094
Flight time 1h 22m
Altitude 36000
Route KAATT JROSS Q409 PUPYY BAAMF DADES2
Aircraft B738/M-SDE2E3FGHIRWXY/LB1

Departure

Time 2026-04-22 04:25
Airport Wilmington International Airport (KILM)

Arrival

Time 2026-04-22 05:47
Airport Tampa International Airport (KTPA)
Time Latitude Longitude Altitude Speed Heading
2026-04-22 03:54 34.26712 -77.90895 36 ft 0 kts 218°
2026-04-22 04:15 34.26726 -77.90883 34 ft 4 kts 201°
2026-04-22 04:15 34.26746 -77.90882 36 ft 4 kts 131°
2026-04-22 04:16 34.26752 -77.90907 36 ft 4 kts 70°
2026-04-22 04:16 34.26745 -77.90922 36 ft 1 kts 54°
2026-04-22 04:19 34.26747 -77.90919 36 ft 2 kts 54°
2026-04-22 04:20 34.26765 -77.90888 36 ft 7 kts 54°
2026-04-22 04:20 34.26789 -77.90841 36 ft 7 kts 69°
2026-04-22 04:20 34.26798 -77.90786 37 ft 7 kts 83°
2026-04-22 04:20 34.26800 -77.90732 37 ft 6 kts 89°
2026-04-22 04:21 34.26800 -77.90678 36 ft 7 kts 89°
2026-04-22 04:21 34.26801 -77.90612 35 ft 9 kts 89°
2026-04-22 04:21 34.26788 -77.90533 30 ft 11 kts 132°
2026-04-22 04:21 34.26717 -77.90498 30 ft 11 kts 165°
2026-04-22 04:22 34.26642 -77.90474 30 ft 11 kts 164°
2026-04-22 04:22 34.26572 -77.90446 31 ft 11 kts 159°
2026-04-22 04:22 34.26503 -77.90414 30 ft 10 kts 159°
2026-04-22 04:22 34.26437 -77.90384 29 ft 10 kts 159°
2026-04-22 04:23 34.26373 -77.90355 30 ft 10 kts 159°
2026-04-22 04:23 34.26324 -77.90313 31 ft 6 kts 108°
2026-04-22 04:23 34.26330 -77.90266 31 ft 6 kts 77°
2026-04-22 04:23 34.26334 -77.90218 32 ft 6 kts 91°
2026-04-22 04:24 34.26334 -77.90171 33 ft 6 kts 85°
2026-04-22 04:24 34.26354 -77.90122 31 ft 8 kts 39°
2026-04-22 04:24 34.26396 -77.90130 32 ft 2 kts 339°
2026-04-22 04:24 34.26398 -77.90130 32 ft 1 kts 339°
2026-04-22 04:25 34.26607 -77.90225 27 ft 70 kts 339°
2026-04-22 04:25 34.27293 -77.90537 31 ft 136 kts 339°
2026-04-22 04:25 34.28348 -77.91024 209 ft 176 kts 339°
2026-04-22 04:25 34.29467 -77.91545 1101 ft 172 kts 338°
2026-04-22 04:26 34.30617 -77.92071 1856 ft 181 kts 339°
2026-04-22 04:26 34.31822 -77.92677 2312 ft 199 kts 320°
2026-04-22 04:26 34.32503 -77.94134 2661 ft 216 kts 278°
2026-04-22 04:26 34.32460 -77.96034 2958 ft 232 kts 263°
2026-04-22 04:27 34.32244 -77.98043 3201 ft 251 kts 263°
2026-04-22 04:27 34.32015 -78.00156 3976 ft 253 kts 264°
2026-04-22 04:27 34.31808 -78.02312 4599 ft 259 kts 265°
2026-04-22 04:27 34.31623 -78.04473 5029 ft 265 kts 266°
2026-04-22 04:28 34.31450 -78.06716 4972 ft 265 kts 266°
2026-04-22 04:28 34.31296 -78.08926 5034 ft 264 kts 267°
2026-04-22 04:28 34.31151 -78.11166 5470 ft 267 kts 268°
2026-04-22 04:28 34.31013 -78.13384 6318 ft 266 kts 268°
2026-04-22 04:29 34.30863 -78.15616 7185 ft 266 kts 268°
2026-04-22 04:29 34.30730 -78.17875 7962 ft 268 kts 269°
2026-04-22 04:29 34.30606 -78.20112 8715 ft 271 kts 269°
2026-04-22 04:29 34.30480 -78.22398 9502 ft 273 kts 269°
2026-04-22 04:30 34.30353 -78.24713 10233 ft 276 kts 269°
2026-04-22 04:30 34.30224 -78.27084 10478 ft 297 kts 269°
2026-04-22 04:30 34.30084 -78.29674 10654 ft 318 kts 269°
2026-04-22 04:30 34.29933 -78.32443 10813 ft 339 kts 269°
2026-04-22 04:31 34.29772 -78.35354 11162 ft 352 kts 269°
2026-04-22 04:31 34.29603 -78.38331 11771 ft 356 kts 269°
2026-04-22 04:31 34.29431 -78.41322 12461 ft 358 kts 269°
2026-04-22 04:31 34.29260 -78.44308 13104 ft 361 kts 269°
2026-04-22 04:32 34.29084 -78.47382 13756 ft 366 kts 269°
2026-04-22 04:32 34.28909 -78.50431 14387 ft 369 kts 269°
2026-04-22 04:32 34.28730 -78.53544 15057 ft 371 kts 269°
2026-04-22 04:32 34.28550 -78.56656 15780 ft 371 kts 269°
2026-04-22 04:33 34.28368 -78.59793 16485 ft 373 kts 269°
2026-04-22 04:33 34.28185 -78.62941 17146 ft 375 kts 269°
2026-04-22 04:33 34.28003 -78.66059 17800 ft 377 kts 270°
2026-04-22 04:33 34.27817 -78.69238 18448 ft 380 kts 270°
2026-04-22 04:34 34.27629 -78.72437 19024 ft 382 kts 270°
2026-04-22 04:34 34.27437 -78.75664 19576 ft 384 kts 270°
2026-04-22 04:34 34.27247 -78.78870 20127 ft 386 kts 270°
2026-04-22 04:34 34.27053 -78.82120 20666 ft 388 kts 270°
2026-04-22 04:35 34.26856 -78.85407 21182 ft 391 kts 270°
2026-04-22 04:35 34.26660 -78.88660 21694 ft 393 kts 270°
2026-04-22 04:35 34.26459 -78.91978 22199 ft 395 kts 270°
2026-04-22 04:35 34.26208 -78.95310 22668 ft 401 kts 264°
2026-04-22 04:36 34.25360 -78.98567 23118 ft 413 kts 251°
2026-04-22 04:36 34.23919 -79.01575 23599 ft 424 kts 239°
2026-04-22 04:36 34.21868 -79.04219 24013 ft 435 kts 229°
2026-04-22 04:36 34.19594 -79.06676 24408 ft 438 kts 227°
2026-04-22 04:37 34.17284 -79.09099 24793 ft 440 kts 227°
2026-04-22 04:37 34.14990 -79.11493 25153 ft 442 kts 227°
2026-04-22 04:37 34.12663 -79.13934 25525 ft 444 kts 227°
2026-04-22 04:37 34.10332 -79.16399 25892 ft 445 kts 227°
2026-04-22 04:38 34.07998 -79.18883 26250 ft 447 kts 227°
2026-04-22 04:38 34.05687 -79.21354 26590 ft 449 kts 228°
2026-04-22 04:38 34.03348 -79.23861 26908 ft 451 kts 228°
2026-04-22 04:38 34.00994 -79.26385 27239 ft 453 kts 228°
2026-04-22 04:39 33.98628 -79.28921 27564 ft 454 kts 228°
2026-04-22 04:39 33.96253 -79.31463 27894 ft 456 kts 228°
2026-04-22 04:39 33.93904 -79.33977 28175 ft 458 kts 228°
2026-04-22 04:39 33.91511 -79.36535 28467 ft 460 kts 228°
2026-04-22 04:40 33.89104 -79.39105 28799 ft 461 kts 228°
2026-04-22 04:40 33.86706 -79.41661 29274 ft 458 kts 228°
2026-04-22 04:40 33.84355 -79.44163 29768 ft 455 kts 228°
2026-04-22 04:40 33.81981 -79.46688 30242 ft 453 kts 228°
2026-04-22 04:41 33.79615 -79.49205 30600 ft 452 kts 228°
2026-04-22 04:41 33.77252 -79.51718 30964 ft 451 kts 229°
2026-04-22 04:41 33.74930 -79.54186 31360 ft 448 kts 229°
2026-04-22 04:41 33.72586 -79.56674 31777 ft 445 kts 229°
2026-04-22 04:42 33.70266 -79.59136 32151 ft 443 kts 229°
2026-04-22 04:42 33.67983 -79.61556 32505 ft 442 kts 229°
2026-04-22 04:42 33.65673 -79.64004 32846 ft 440 kts 229°
2026-04-22 04:42 33.63370 -79.66443 33215 ft 439 kts 229°
2026-04-22 04:43 33.61111 -79.68834 33557 ft 437 kts 229°
2026-04-22 04:43 33.58829 -79.71246 33909 ft 435 kts 230°
2026-04-22 04:43 33.56547 -79.73657 34234 ft 434 kts 230°
2026-04-22 04:43 33.54306 -79.76024 34504 ft 433 kts 230°
2026-04-22 04:44 33.52025 -79.78431 34727 ft 433 kts 230°
2026-04-22 04:44 33.49782 -79.80797 34925 ft 433 kts 230°
2026-04-22 04:44 33.47512 -79.83191 35122 ft 434 kts 230°
2026-04-22 04:44 33.45264 -79.85557 35349 ft 433 kts 230°
2026-04-22 04:45 33.43005 -79.87933 35582 ft 433 kts 230°
2026-04-22 04:45 33.40746 -79.90307 35790 ft 432 kts 230°
2026-04-22 04:45 33.38482 -79.92685 36002 ft 432 kts 230°
2026-04-22 04:45 33.36213 -79.95067 36214 ft 432 kts 230°
2026-04-22 04:46 33.33977 -79.97413 36325 ft 433 kts 230°
2026-04-22 04:46 33.30726 -80.00823 36329 ft 434 kts 230°
2026-04-22 04:47 33.27067 -80.04650 36328 ft 431 kts 230°
2026-04-22 04:47 33.22580 -80.09336 36325 ft 428 kts 230°
2026-04-22 04:48 33.18116 -80.13996 36327 ft 426 kts 230°
2026-04-22 04:48 33.13642 -80.18662 36323 ft 425 kts 231°
2026-04-22 04:49 33.09203 -80.23286 36321 ft 425 kts 231°
2026-04-22 04:49 33.04742 -80.27925 36324 ft 426 kts 231°
2026-04-22 04:50 33.00278 -80.32562 36320 ft 428 kts 231°
2026-04-22 04:50 32.95774 -80.37232 36319 ft 430 kts 231°
2026-04-22 04:51 32.91263 -80.41902 36319 ft 431 kts 231°
2026-04-22 04:51 32.86717 -80.46601 36333 ft 433 kts 231°
2026-04-22 04:52 32.82177 -80.51288 36330 ft 433 kts 231°
2026-04-22 04:52 32.78384 -80.55199 36328 ft 433 kts 231°
2026-04-22 04:53 32.73078 -80.60663 36330 ft 433 kts 231°
2026-04-22 04:53 32.68471 -80.65282 36317 ft 435 kts 228°
2026-04-22 04:54 32.63703 -80.69678 36328 ft 435 kts 227°
2026-04-22 04:54 32.59718 -80.73323 36327 ft 433 kts 228°
2026-04-22 04:55 32.54982 -80.77695 36327 ft 432 kts 228°
2026-04-22 04:55 32.50243 -80.82092 36327 ft 430 kts 228°
2026-04-22 04:56 32.45556 -80.86439 36326 ft 429 kts 228°
2026-04-22 04:56 32.40846 -80.90801 36329 ft 429 kts 228°
2026-04-22 04:57 32.36150 -80.95144 36326 ft 428 kts 228°
2026-04-22 04:57 32.31481 -80.99456 36324 ft 428 kts 228°
2026-04-22 04:58 32.26614 -81.03598 36318 ft 438 kts 220°
2026-04-22 04:58 32.21296 -81.07118 36322 ft 440 kts 220°
2026-04-22 04:59 32.15949 -81.10628 36319 ft 439 kts 220°
2026-04-22 04:59 32.10606 -81.14176 36321 ft 439 kts 220°
2026-04-22 05:00 32.05303 -81.17711 36294 ft 439 kts 220°
2026-04-22 05:00 32.00006 -81.21236 36292 ft 438 kts 220°
2026-04-22 05:01 31.94917 -81.25034 36285 ft 422 kts 231°
2026-04-22 05:01 31.90577 -81.29640 36293 ft 419 kts 233°
2026-04-22 05:02 31.86278 -81.34258 36315 ft 418 kts 232°
2026-04-22 05:02 31.81972 -81.38834 36318 ft 418 kts 232°
2026-04-22 05:03 31.77650 -81.43395 36318 ft 418 kts 232°
2026-04-22 05:03 31.73300 -81.47973 36323 ft 418 kts 232°
2026-04-22 05:04 31.68993 -81.52502 36320 ft 418 kts 232°
2026-04-22 05:04 31.64676 -81.57035 36317 ft 417 kts 232°
2026-04-22 05:05 31.60340 -81.61579 36326 ft 417 kts 232°
2026-04-22 05:05 31.55991 -81.66138 36343 ft 419 kts 232°
2026-04-22 05:06 31.51662 -81.70669 36341 ft 420 kts 232°
2026-04-22 05:06 31.47302 -81.75225 36345 ft 421 kts 231°
2026-04-22 05:07 31.42936 -81.79780 36342 ft 421 kts 231°
2026-04-22 05:07 31.38121 -81.83879 36343 ft 435 kts 220°
2026-04-22 05:08 31.32872 -81.87398 36333 ft 436 kts 220°
2026-04-22 05:08 31.27594 -81.90928 36317 ft 435 kts 220°
2026-04-22 05:09 31.22378 -81.94448 36312 ft 434 kts 220°
2026-04-22 05:09 31.17174 -81.97973 36306 ft 433 kts 220°
2026-04-22 05:10 31.11950 -82.01510 36306 ft 432 kts 220°
2026-04-22 05:10 31.06772 -82.05012 36313 ft 431 kts 220°
2026-04-22 05:11 31.01575 -82.08521 36329 ft 431 kts 220°
2026-04-22 05:11 30.96381 -82.12024 36346 ft 431 kts 220°
2026-04-22 05:12 30.91219 -82.15501 36372 ft 431 kts 220°
2026-04-22 05:12 30.86008 -82.19006 36395 ft 431 kts 220°
2026-04-22 05:13 30.80835 -82.22482 36405 ft 431 kts 220°
2026-04-22 05:13 30.75644 -82.25966 36409 ft 432 kts 220°
2026-04-22 05:14 30.70412 -82.29476 36412 ft 432 kts 216°
2026-04-22 05:14 30.64843 -82.32154 36429 ft 451 kts 195°
2026-04-22 05:15 30.58542 -82.32952 36428 ft 457 kts 192°
2026-04-22 05:15 30.52199 -82.33630 36432 ft 459 kts 192°
2026-04-22 05:16 30.45838 -82.34379 36424 ft 460 kts 193°
2026-04-22 05:16 30.39469 -82.35171 36395 ft 461 kts 193°
2026-04-22 05:17 30.33079 -82.35970 36368 ft 462 kts 193°
2026-04-22 05:17 30.26693 -82.36765 36348 ft 462 kts 193°
2026-04-22 05:18 30.17105 -82.37944 36333 ft 463 kts 191°
2026-04-22 05:18 30.10644 -82.37850 36337 ft 470 kts 183°
2026-04-22 05:19 30.04083 -82.37326 36340 ft 470 kts 182°
2026-04-22 05:19 29.97587 -82.36869 36336 ft 468 kts 183°
2026-04-22 05:20 29.91088 -82.36492 36335 ft 468 kts 184°
2026-04-22 05:20 29.84612 -82.36139 36334 ft 467 kts 184°
2026-04-22 05:21 29.78054 -82.35782 35740 ft 475 kts 183°
2026-04-22 05:21 29.74787 -82.35602 35162 ft 473 kts 182°
2026-04-22 05:21 29.71479 -82.35417 34524 ft 473 kts 182°
2026-04-22 05:22 29.68213 -82.35234 33805 ft 474 kts 182°
2026-04-22 05:22 29.64929 -82.35051 33066 ft 474 kts 182°
2026-04-22 05:22 29.61613 -82.34867 32334 ft 474 kts 182°
2026-04-22 05:22 29.58312 -82.34685 31628 ft 475 kts 182°
2026-04-22 05:23 29.55069 -82.34504 31318 ft 465 kts 182°
2026-04-22 05:23 29.51827 -82.34323 30794 ft 462 kts 182°
2026-04-22 05:23 29.48656 -82.34149 30305 ft 457 kts 182°
2026-04-22 05:23 29.45477 -82.33975 29729 ft 453 kts 182°
2026-04-22 05:24 29.42346 -82.33802 29208 ft 448 kts 182°
2026-04-22 05:24 29.39277 -82.33613 28695 ft 444 kts 180°
2026-04-22 05:24 29.36192 -82.33302 28222 ft 440 kts 179°
2026-04-22 05:24 29.33170 -82.32929 27710 ft 437 kts 178°
2026-04-22 05:25 29.30155 -82.32536 27207 ft 433 kts 178°
2026-04-22 05:25 29.27196 -82.32153 26719 ft 430 kts 178°
2026-04-22 05:25 29.24213 -82.31776 26230 ft 427 kts 178°
2026-04-22 05:25 29.21260 -82.31413 25740 ft 424 kts 178°
2026-04-22 05:26 29.18372 -82.31064 25262 ft 421 kts 178°
2026-04-22 05:26 29.15452 -82.30715 24746 ft 420 kts 178°
2026-04-22 05:26 29.12530 -82.30368 24258 ft 418 kts 178°
2026-04-22 05:26 29.09652 -82.30027 23735 ft 416 kts 178°
2026-04-22 05:27 29.06803 -82.29689 23191 ft 414 kts 178°
2026-04-22 05:27 29.03927 -82.29348 22669 ft 411 kts 177°
2026-04-22 05:27 29.01111 -82.29013 22183 ft 407 kts 177°
2026-04-22 05:27 28.98286 -82.28678 21691 ft 404 kts 177°
2026-04-22 05:28 28.95532 -82.28351 21221 ft 400 kts 176°
2026-04-22 05:28 28.92762 -82.28023 20757 ft 397 kts 176°
2026-04-22 05:28 28.90018 -82.27698 20290 ft 394 kts 176°
2026-04-22 05:28 28.87296 -82.27376 19829 ft 392 kts 176°
2026-04-22 05:29 28.84618 -82.27059 19376 ft 389 kts 175°
2026-04-22 05:29 28.81905 -82.26739 18904 ft 387 kts 175°
2026-04-22 05:29 28.79251 -82.26425 18413 ft 385 kts 175°
2026-04-22 05:29 28.76599 -82.26111 17909 ft 382 kts 175°
2026-04-22 05:30 28.73953 -82.25803 17288 ft 382 kts 175°
2026-04-22 05:30 28.71288 -82.25669 16717 ft 382 kts 180°
2026-04-22 05:30 28.68665 -82.25665 16205 ft 379 kts 181°
2026-04-22 05:30 28.66028 -82.25662 15736 ft 376 kts 180°
2026-04-22 05:31 28.63414 -82.25639 15265 ft 373 kts 180°
2026-04-22 05:31 28.60852 -82.25596 14822 ft 370 kts 179°
2026-04-22 05:31 28.58272 -82.25544 14369 ft 367 kts 179°
2026-04-22 05:31 28.55734 -82.25492 13886 ft 366 kts 179°
2026-04-22 05:32 28.53182 -82.25442 13397 ft 363 kts 179°
2026-04-22 05:32 28.50693 -82.25401 12932 ft 359 kts 179°
2026-04-22 05:32 28.48191 -82.25369 12482 ft 356 kts 179°
2026-04-22 05:32 28.45729 -82.25339 12042 ft 353 kts 179°
2026-04-22 05:33 28.43264 -82.25308 11598 ft 351 kts 179°
2026-04-22 05:33 28.40849 -82.25277 11174 ft 348 kts 179°
2026-04-22 05:33 28.38443 -82.25252 10806 ft 344 kts 181°
2026-04-22 05:33 28.36133 -82.25768 10653 ft 333 kts 201°
2026-04-22 05:34 28.34172 -82.27109 10517 ft 323 kts 218°
2026-04-22 05:34 28.32497 -82.28720 10385 ft 314 kts 220°
2026-04-22 05:34 28.30854 -82.30329 10243 ft 305 kts 220°
2026-04-22 05:34 28.29275 -82.31868 10107 ft 297 kts 220°
2026-04-22 05:35 28.27711 -82.33374 9930 ft 296 kts 220°
2026-04-22 05:35 28.26117 -82.34898 9611 ft 300 kts 219°
2026-04-22 05:35 28.24531 -82.36409 9306 ft 299 kts 219°
2026-04-22 05:35 28.22941 -82.37924 9001 ft 294 kts 219°
2026-04-22 05:36 28.21384 -82.39405 8676 ft 291 kts 219°
2026-04-22 05:36 28.19722 -82.40688 8352 ft 288 kts 200°
2026-04-22 05:36 28.17806 -82.41151 8091 ft 283 kts 181°
2026-04-22 05:36 28.15848 -82.41214 7804 ft 281 kts 179°
2026-04-22 05:37 28.13876 -82.41236 7498 ft 281 kts 178°
2026-04-22 05:37 28.11917 -82.41257 7223 ft 280 kts 178°
2026-04-22 05:37 28.10002 -82.41287 6949 ft 276 kts 178°
2026-04-22 05:37 28.08092 -82.41323 6654 ft 271 kts 178°
2026-04-22 05:38 28.06232 -82.41363 6373 ft 269 kts 178°
2026-04-22 05:38 28.04350 -82.41406 6081 ft 271 kts 178°
2026-04-22 05:38 28.02454 -82.41450 5794 ft 272 kts 178°
2026-04-22 05:38 28.00572 -82.41496 5524 ft 268 kts 178°
2026-04-22 05:39 27.98749 -82.41541 5407 ft 262 kts 177°
2026-04-22 05:39 27.96904 -82.41580 5300 ft 265 kts 177°
2026-04-22 05:39 27.95069 -82.41618 5184 ft 267 kts 177°
2026-04-22 05:39 27.93203 -82.41657 5065 ft 266 kts 177°
2026-04-22 05:40 27.91371 -82.41696 5001 ft 263 kts 177°
2026-04-22 05:40 27.89569 -82.41742 4978 ft 252 kts 177°
2026-04-22 05:40 27.87859 -82.41787 4971 ft 246 kts 177°
2026-04-22 05:40 27.86137 -82.41829 4979 ft 249 kts 177°
2026-04-22 05:41 27.84405 -82.41872 4984 ft 249 kts 177°
2026-04-22 05:41 27.82668 -82.41915 4971 ft 249 kts 177°
2026-04-22 05:41 27.80932 -82.41954 4981 ft 249 kts 177°
2026-04-22 05:41 27.79248 -82.42331 4914 ft 254 kts 205°
2026-04-22 05:42 27.78007 -82.43744 4611 ft 258 kts 242°
2026-04-22 05:42 27.77440 -82.45671 4108 ft 259 kts 251°
2026-04-22 05:42 27.76888 -82.47598 3576 ft 260 kts 249°
2026-04-22 05:42 27.76597 -82.49582 3236 ft 255 kts 275°
2026-04-22 05:43 27.77113 -82.51416 3073 ft 239 kts 304°
2026-04-22 05:43 27.78253 -82.52720 2710 ft 230 kts 332°
2026-04-22 05:43 27.79704 -82.53378 2610 ft 229 kts 354°
2026-04-22 05:43 27.81279 -82.53465 2590 ft 222 kts
2026-04-22 05:44 27.82291 -82.53401 2566 ft 216 kts
2026-04-22 05:44 27.84190 -82.53316 2562 ft 196 kts
2026-04-22 05:44 27.85501 -82.53273 2536 ft 184 kts
2026-04-22 05:44 27.86750 -82.53230 2258 ft 174 kts
2026-04-22 05:45 27.87545 -82.53204 2079 ft 165 kts
2026-04-22 05:45 27.88646 -82.53166 1799 ft 157 kts
2026-04-22 05:45 27.89743 -82.53113 1541 ft 154 kts
2026-04-22 05:45 27.90795 -82.53092 1346 ft 153 kts
2026-04-22 05:46 27.91853 -82.53059 1138 ft 152 kts
2026-04-22 05:46 27.92899 -82.53026 912 ft 151 kts
2026-04-22 05:46 27.93948 -82.52982 620 ft 153 kts
2026-04-22 05:46 27.95018 -82.52948 379 ft 152 kts
2026-04-22 05:47 27.96070 -82.52910 163 ft 153 kts
2026-04-22 05:47 27.97120 -82.52877 37 ft 142 kts
2026-04-22 05:47 27.97989 -82.52847 37 ft 104 kts
2026-04-22 05:47 27.98488 -82.52830 37 ft 40 kts
2026-04-22 05:48 27.98651 -82.52826 36 ft 15 kts
2026-04-22 05:48 27.98706 -82.52850 36 ft 8 kts 299°
2026-04-22 05:48 27.98709 -82.52913 38 ft 8 kts 258°
2026-04-22 05:48 27.98667 -82.52945 40 ft 8 kts 181°
2026-04-22 05:49 27.98614 -82.52946 40 ft 8 kts 181°
2026-04-22 05:49 27.98562 -82.52949 40 ft 7 kts 182°
2026-04-22 05:49 27.98512 -82.52952 40 ft 7 kts 182°
2026-04-22 05:49 27.98465 -82.52955 40 ft 7 kts 183°
2026-04-22 05:50 27.98417 -82.52958 40 ft 7 kts 183°
2026-04-22 05:50 27.98371 -82.52960 40 ft 7 kts 183°
2026-04-22 05:50 27.98333 -82.52985 41 ft 6 kts 243°
2026-04-22 05:50 27.98351 -82.53028 41 ft 6 kts 315°
2026-04-22 05:51 27.98384 -82.53064 42 ft 7 kts 317°
2026-04-22 05:51 27.98424 -82.53105 40 ft 8 kts 316°
2026-04-22 05:51 27.98463 -82.53148 39 ft 8 kts 316°
2026-04-22 05:51 27.98492 -82.53196 43 ft 7 kts 284°
2026-04-22 05:52 27.98496 -82.53253 44 ft 7 kts 272°
2026-04-22 05:52 27.98496 -82.53309 43 ft 7 kts 262°
2026-04-22 05:52 27.98464 -82.53354 42 ft 7 kts 219°
2026-04-22 05:52 27.98419 -82.53376 42 ft 7 kts 184°
2026-04-22 05:53 27.98370 -82.53376 42 ft 7 kts 180°
2026-04-22 05:53 27.98343 -82.53362 42 ft 3 kts 112°
2026-04-22 05:53 27.98342 -82.53339 42 ft 3 kts 93°
2026-04-22 05:53 27.98341 -82.53320 42 ft 2 kts 92°
2026-04-22 05:54 27.98340 -82.53309 42 ft 1 kts 92°